User: anonymous   Login
Location: Baix
(44.7118°N, 4.7648°E)
Time: 16:27:37
(UTC+00:00)
Language:

DNEPR-1 R/B - Orbit

View from above orbital plane
View from above orbital plane
View from above satellite
View from above satellite

Ground track
Ground track

The orbit data is extracted from the following two-line orbital elements,

1 26550U 00057F   20292.74988758 -.00000088  00000-0  91654-5 0  9998
2 26550  64.5637   5.8310 0527506 172.0662 188.9171 13.80796662 11125
Epoch (UTC): 18 October 2020 17:59:50
Eccentricity: 0.0527506
inclination: 64.5637°
perigee height: 574 km
apogee height: 1348 km
right ascension of ascending node: 5.8310°
argument of perigee: 172.0662°
revolutions per day: 13.80796662
mean anomaly at epoch: 188.9171°
orbit number at epoch: 1112

The dashed part of the orbit path shows where the satellite is in the earth's shadow,  

DLR